OneWeb SL0623

operational
NORAD ID: 55164 Int'l Des: 2023-004 Owner: ONEWEBN Country: UK Constellation: oneweb
LEOCIRCULARPOLARONEWEB_TYPE

关于 OneWeb SL0623

正在加载描述...

实时位置

正在加载3D地球...

即将过境

高度历史

Altitude vs Time

uPlot chart will show altitude changes over time

两行轨道根数

1 55164U 23004AA 25308.01928049 -.00000048 00000-0 -15619-3 0 9990
2 55164 87.9126 50.6616 0001101 82.7331 277.3926 13.17651122137935
Epoch: Nov 4, 2025 • Age: 9 hours

当前状态

高度 1200.9 km
速度 7.26 km/s
星下点 49.73°N, 138.25°W
发射日期 Jan 10, 2023
运行时间 2.8 years
类型 internet

技术详情

分类 Payload
质量 148.00 kg
干质量 140.00 kg
总质量 148.00 kg
长度 1.30 m
直径 1.00 m
跨度 5.00 m
形状 Trapezoid+2 pan
制造商 ONEWUS
平台类型 ARROW
阶段状态 In Orbit
所有者/国家 ONEWEBN/UK

大型星座

Loading constellations...